owner,sensor,date,latitude,longitude,air_pressure(mBar),qcFlag 
WAVCIS,ioos:station:WAVCIS:CSI06:1,2016-10-01T00:00:00Z,28.8667,-90.4833,1016.8,11111222 
WAVCIS,ioos:station:WAVCIS:CSI06:1,2016-10-01T01:00:00Z,28.8667,-90.4833,1017.06,11111222 
WAVCIS,ioos:station:WAVCIS:CSI06:1,2016-10-01T02:00:00Z,28.8667,-90.4833,1017.29,11111222 
WAVCIS,ioos:station:WAVCIS:CSI06:1,2016-10-01T03:00:00Z,28.8667,-90.4833,1017.76,11111222 
WAVCIS,ioos:station:WAVCIS:CSI06:1,2016-10-01T04:00:00Z,28.8667,-90.4833,1017.86,11111222 
WAVCIS,ioos:station:WAVCIS:CSI06:1,2016-10-01T05:00:00Z,28.8667,-90.4833,1017.92,11111222 
WAVCIS,ioos:station:WAVCIS:CSI06:1,2016-10-01T06:00:00Z,28.8667,-90.4833,1017.95,11111222 
WAVCIS,ioos:station:WAVCIS:CSI06:1,2016-10-01T07:00:00Z,28.8667,-90.4833,1017.43,11111222 
WAVCIS,ioos:station:WAVCIS:CSI06:1,2016-10-01T08:00:00Z,28.8667,-90.4833,1017.41,11111222 
WAVCIS,ioos:station:WAVCIS:CSI06:1,2016-10-01T09:00:00Z,28.8667,-90.4833,1016.86,11111222 
WAVCIS,ioos:station:WAVCIS:CSI06:1,2016-10-01T10:00:00Z,28.8667,-90.4833,1016.77,11111222 
WAVCIS,ioos:station:WAVCIS:CSI06:1,2016-10-01T11:00:00Z,28.8667,-90.4833,1017.08,11111222 
WAVCIS,ioos:station:WAVCIS:CSI06:1,2016-10-01T12:00:00Z,28.8667,-90.4833,1017.58,11111222 
WAVCIS,ioos:station:WAVCIS:CSI06:1,2016-10-01T13:00:00Z,28.8667,-90.4833,1017.74,11111222 
WAVCIS,ioos:station:WAVCIS:CSI06:1,2016-10-01T14:00:00Z,28.8667,-90.4833,1018.41,11111222 
WAVCIS,ioos:station:WAVCIS:CSI06:1,2016-10-01T15:00:00Z,28.8667,-90.4833,1018.43,11111222 
WAVCIS,ioos:station:WAVCIS:CSI06:1,2016-10-01T16:00:00Z,28.8667,-90.4833,1018.39,11111222 
WAVCIS,ioos:station:WAVCIS:CSI06:1,2016-10-01T17:00:00Z,28.8667,-90.4833,1017.97,11111222 
WAVCIS,ioos:station:WAVCIS:CSI06:1,2016-10-01T18:00:00Z,28.8667,-90.4833,1017.6,11111222 
WAVCIS,ioos:station:WAVCIS:CSI06:1,2016-10-01T19:00:00Z,28.8667,-90.4833,1017.12,11111222 
WAVCIS,ioos:station:WAVCIS:CSI06:1,2016-10-01T20:00:00Z,28.8667,-90.4833,1016.71,11111222 
WAVCIS,ioos:station:WAVCIS:CSI06:1,2016-10-01T21:00:00Z,28.8667,-90.4833,1016.12,11111222 
WAVCIS,ioos:station:WAVCIS:CSI06:1,2016-10-01T22:00:00Z,28.8667,-90.4833,1015.73,11111222 
WAVCIS,ioos:station:WAVCIS:CSI06:1,2016-10-01T23:00:00Z,28.8667,-90.4833,1015.8,11111222 
WAVCIS,ioos:station:WAVCIS:CSI06:1,2016-10-02T00:00:00Z,28.8667,-90.4833,1015.87,11111222 
WAVCIS,ioos:station:WAVCIS:CSI06:1,2016-10-02T01:00:00Z,28.8667,-90.4833,1015.99,11111222 
WAVCIS,ioos:station:WAVCIS:CSI06:1,2016-10-02T02:00:00Z,28.8667,-90.4833,1016.26,11111222 
WAVCIS,ioos:station:WAVCIS:CSI06:1,2016-10-02T03:00:00Z,28.8667,-90.4833,1016.36,11111222 
WAVCIS,ioos:station:WAVCIS:CSI06:1,2016-10-02T04:00:00Z,28.8667,-90.4833,1016.57,11111222 
WAVCIS,ioos:station:WAVCIS:CSI06:1,2016-10-02T05:00:00Z,28.8667,-90.4833,1016.34,11111222 
WAVCIS,ioos:station:WAVCIS:CSI06:1,2016-10-02T06:00:00Z,28.8667,-90.4833,1016.12,11111222 
WAVCIS,ioos:station:WAVCIS:CSI06:1,2016-10-02T07:00:00Z,28.8667,-90.4833,1016.18,11111222 
WAVCIS,ioos:station:WAVCIS:CSI06:1,2016-10-02T08:00:00Z,28.8667,-90.4833,1016.04,11111222 
WAVCIS,ioos:station:WAVCIS:CSI06:1,2016-10-02T09:00:00Z,28.8667,-90.4833,1015.77,11111222 
WAVCIS,ioos:station:WAVCIS:CSI06:1,2016-10-02T10:00:00Z,28.8667,-90.4833,1015.35,11111222 
WAVCIS,ioos:station:WAVCIS:CSI06:1,2016-10-02T11:00:00Z,28.8667,-90.4833,1015.69,11111222 
WAVCIS,ioos:station:WAVCIS:CSI06:1,2016-10-02T12:00:00Z,28.8667,-90.4833,1015.89,11111222 
WAVCIS,ioos:station:WAVCIS:CSI06:1,2016-10-02T13:00:00Z,28.8667,-90.4833,1016.16,11111222 
WAVCIS,ioos:station:WAVCIS:CSI06:1,2016-10-02T14:00:00Z,28.8667,-90.4833,1016.68,11111222 
WAVCIS,ioos:station:WAVCIS:CSI06:1,2016-10-02T15:00:00Z,28.8667,-90.4833,1016.9,11111222 
WAVCIS,ioos:station:WAVCIS:CSI06:1,2016-10-02T16:00:00Z,28.8667,-90.4833,1016.43,11111222 
WAVCIS,ioos:station:WAVCIS:CSI06:1,2016-10-02T17:00:00Z,28.8667,-90.4833,1016.79,11111222 
WAVCIS,ioos:station:WAVCIS:CSI06:1,2016-10-02T18:00:00Z,28.8667,-90.4833,1016.46,11111222 
WAVCIS,ioos:station:WAVCIS:CSI06:1,2016-10-02T19:00:00Z,28.8667,-90.4833,1015.42,11111222 
WAVCIS,ioos:station:WAVCIS:CSI06:1,2016-10-02T20:00:00Z,28.8667,-90.4833,1014.94,11111222 
WAVCIS,ioos:station:WAVCIS:CSI06:1,2016-10-02T21:00:00Z,28.8667,-90.4833,1014.73,11111222 
WAVCIS,ioos:station:WAVCIS:CSI06:1,2016-10-02T22:00:00Z,28.8667,-90.4833,1014.56,11111222 
WAVCIS,ioos:station:WAVCIS:CSI06:1,2016-10-02T23:00:00Z,28.8667,-90.4833,1014.89,11111222 
WAVCIS,ioos:station:WAVCIS:CSI06:1,2016-10-03T00:00:00Z,28.8667,-90.4833,1014.9,11111222 
WAVCIS,ioos:station:WAVCIS:CSI06:1,2016-10-03T01:00:00Z,28.8667,-90.4833,1014.95,11111222 
WAVCIS,ioos:station:WAVCIS:CSI06:1,2016-10-03T02:00:00Z,28.8667,-90.4833,1015.1,11111222 
WAVCIS,ioos:station:WAVCIS:CSI06:1,2016-10-03T03:00:00Z,28.8667,-90.4833,1015.16,11111222 
WAVCIS,ioos:station:WAVCIS:CSI06:1,2016-10-03T04:00:00Z,28.8667,-90.4833,1015.11,11111222 
WAVCIS,ioos:station:WAVCIS:CSI06:1,2016-10-03T05:00:00Z,28.8667,-90.4833,1014.86,11111222 
WAVCIS,ioos:station:WAVCIS:CSI06:1,2016-10-03T06:00:00Z,28.8667,-90.4833,1014.14,11111222 
WAVCIS,ioos:station:WAVCIS:CSI06:1,2016-10-03T07:00:00Z,28.8667,-90.4833,1013.99,11111222 
WAVCIS,ioos:station:WAVCIS:CSI06:1,2016-10-03T08:00:00Z,28.8667,-90.4833,1013.51,11111222 
WAVCIS,ioos:station:WAVCIS:CSI06:1,2016-10-03T09:00:00Z,28.8667,-90.4833,1012.86,11111222 
WAVCIS,ioos:station:WAVCIS:CSI06:1,2016-10-03T10:00:00Z,28.8667,-90.4833,1013.0,11111222 
WAVCIS,ioos:station:WAVCIS:CSI06:1,2016-10-03T11:00:00Z,28.8667,-90.4833,1013.35,11111222 
WAVCIS,ioos:station:WAVCIS:CSI06:1,2016-10-03T12:00:00Z,28.8667,-90.4833,1013.5,11111222 
WAVCIS,ioos:station:WAVCIS:CSI06:1,2016-10-03T13:00:00Z,28.8667,-90.4833,1013.57,11111222 
WAVCIS,ioos:station:WAVCIS:CSI06:1,2016-10-03T14:00:00Z,28.8667,-90.4833,1014.02,11111222 
WAVCIS,ioos:station:WAVCIS:CSI06:1,2016-10-03T15:00:00Z,28.8667,-90.4833,1014.48,11111222 
WAVCIS,ioos:station:WAVCIS:CSI06:1,2016-10-03T16:00:00Z,28.8667,-90.4833,1014.21,11111222 
WAVCIS,ioos:station:WAVCIS:CSI06:1,2016-10-03T17:00:00Z,28.8667,-90.4833,1013.48,11111222 
WAVCIS,ioos:station:WAVCIS:CSI06:1,2016-10-03T18:00:00Z,28.8667,-90.4833,1012.99,11111222 
WAVCIS,ioos:station:WAVCIS:CSI06:1,2016-10-03T19:00:00Z,28.8667,-90.4833,1012.51,11111222 
WAVCIS,ioos:station:WAVCIS:CSI06:1,2016-10-03T20:00:00Z,28.8667,-90.4833,1011.78,11111222 
WAVCIS,ioos:station:WAVCIS:CSI06:1,2016-10-03T21:00:00Z,28.8667,-90.4833,1011.61,11111222 
WAVCIS,ioos:station:WAVCIS:CSI06:1,2016-10-03T22:00:00Z,28.8667,-90.4833,1011.15,11111222 
WAVCIS,ioos:station:WAVCIS:CSI06:1,2016-10-03T23:00:00Z,28.8667,-90.4833,1011.1,11111222 
WAVCIS,ioos:station:WAVCIS:CSI06:1,2016-10-04T00:00:00Z,28.8667,-90.4833,1011.1,11111222 
WAVCIS,ioos:station:WAVCIS:CSI06:1,2016-10-04T01:00:00Z,28.8667,-90.4833,1011.35,11111222 
WAVCIS,ioos:station:WAVCIS:CSI06:1,2016-10-04T02:00:00Z,28.8667,-90.4833,1011.64,11111222 
WAVCIS,ioos:station:WAVCIS:CSI06:1,2016-10-04T03:00:00Z,28.8667,-90.4833,1012.12,11111222 
WAVCIS,ioos:station:WAVCIS:CSI06:1,2016-10-04T04:00:00Z,28.8667,-90.4833,1012.09,11111222 
WAVCIS,ioos:station:WAVCIS:CSI06:1,2016-10-04T05:00:00Z,28.8667,-90.4833,1011.64,11111222 
WAVCIS,ioos:station:WAVCIS:CSI06:1,2016-10-04T06:00:00Z,28.8667,-90.4833,1011.42,11111222 
WAVCIS,ioos:station:WAVCIS:CSI06:1,2016-10-04T07:00:00Z,28.8667,-90.4833,1011.15,11111222 
WAVCIS,ioos:station:WAVCIS:CSI06:1,2016-10-04T08:00:00Z,28.8667,-90.4833,1010.97,11111222 
WAVCIS,ioos:station:WAVCIS:CSI06:1,2016-10-04T09:00:00Z,28.8667,-90.4833,1010.73,11111222 
WAVCIS,ioos:station:WAVCIS:CSI06:1,2016-10-04T10:00:00Z,28.8667,-90.4833,1010.92,11111222 
WAVCIS,ioos:station:WAVCIS:CSI06:1,2016-10-04T11:00:00Z,28.8667,-90.4833,1011.17,11111222 
WAVCIS,ioos:station:WAVCIS:CSI06:1,2016-10-04T12:00:00Z,28.8667,-90.4833,1011.37,11111222 
WAVCIS,ioos:station:WAVCIS:CSI06:1,2016-10-04T13:00:00Z,28.8667,-90.4833,1011.57,11111222 
WAVCIS,ioos:station:WAVCIS:CSI06:1,2016-10-04T14:00:00Z,28.8667,-90.4833,1012.08,11111222 
WAVCIS,ioos:station:WAVCIS:CSI06:1,2016-10-04T15:00:00Z,28.8667,-90.4833,1012.31,11111222 
WAVCIS,ioos:station:WAVCIS:CSI06:1,2016-10-04T16:00:00Z,28.8667,-90.4833,1012.36,11111222 
WAVCIS,ioos:station:WAVCIS:CSI06:1,2016-10-04T17:00:00Z,28.8667,-90.4833,1012.22,11111222 
WAVCIS,ioos:station:WAVCIS:CSI06:1,2016-10-04T18:00:00Z,28.8667,-90.4833,1011.9,11111222 
WAVCIS,ioos:station:WAVCIS:CSI06:1,2016-10-04T19:00:00Z,28.8667,-90.4833,1011.27,11111222 
WAVCIS,ioos:station:WAVCIS:CSI06:1,2016-10-04T20:00:00Z,28.8667,-90.4833,1010.99,11111222 
WAVCIS,ioos:station:WAVCIS:CSI06:1,2016-10-04T21:00:00Z,28.8667,-90.4833,1011.12,11111222 
WAVCIS,ioos:station:WAVCIS:CSI06:1,2016-10-04T22:00:00Z,28.8667,-90.4833,1010.85,11111222 
WAVCIS,ioos:station:WAVCIS:CSI06:1,2016-10-04T23:00:00Z,28.8667,-90.4833,1011.12,11111222 
WAVCIS,ioos:station:WAVCIS:CSI06:1,2016-10-05T00:00:00Z,28.8667,-90.4833,1011.59,11111222 
WAVCIS,ioos:station:WAVCIS:CSI06:1,2016-10-05T01:00:00Z,28.8667,-90.4833,1012.02,11111222 
WAVCIS,ioos:station:WAVCIS:CSI06:1,2016-10-05T02:00:00Z,28.8667,-90.4833,1012.32,11111222 
WAVCIS,ioos:station:WAVCIS:CSI06:1,2016-10-05T03:00:00Z,28.8667,-90.4833,1012.9,11111222 
WAVCIS,ioos:station:WAVCIS:CSI06:1,2016-10-05T04:00:00Z,28.8667,-90.4833,1012.96,11111222 
WAVCIS,ioos:station:WAVCIS:CSI06:1,2016-10-05T05:00:00Z,28.8667,-90.4833,1012.57,11111222 
WAVCIS,ioos:station:WAVCIS:CSI06:1,2016-10-05T06:00:00Z,28.8667,-90.4833,1012.39,11111222 
WAVCIS,ioos:station:WAVCIS:CSI06:1,2016-10-05T07:00:00Z,28.8667,-90.4833,1012.31,11111222 
WAVCIS,ioos:station:WAVCIS:CSI06:1,2016-10-05T08:00:00Z,28.8667,-90.4833,1012.08,11111222 
WAVCIS,ioos:station:WAVCIS:CSI06:1,2016-10-05T09:00:00Z,28.8667,-90.4833,1011.96,11111222 
WAVCIS,ioos:station:WAVCIS:CSI06:1,2016-10-05T10:00:00Z,28.8667,-90.4833,1012.32,11111222 
WAVCIS,ioos:station:WAVCIS:CSI06:1,2016-10-05T11:00:00Z,28.8667,-90.4833,1012.18,11111222 
WAVCIS,ioos:station:WAVCIS:CSI06:1,2016-10-05T12:00:00Z,28.8667,-90.4833,1012.61,11111222 
WAVCIS,ioos:station:WAVCIS:CSI06:1,2016-10-05T13:00:00Z,28.8667,-90.4833,1013.21,11111222 
WAVCIS,ioos:station:WAVCIS:CSI06:1,2016-10-05T14:00:00Z,28.8667,-90.4833,1013.96,11111222 
WAVCIS,ioos:station:WAVCIS:CSI06:1,2016-10-05T15:00:00Z,28.8667,-90.4833,1014.51,11111222 
WAVCIS,ioos:station:WAVCIS:CSI06:1,2016-10-05T16:00:00Z,28.8667,-90.4833,1014.72,11111222 
WAVCIS,ioos:station:WAVCIS:CSI06:1,2016-10-05T17:00:00Z,28.8667,-90.4833,1014.44,11111222 
WAVCIS,ioos:station:WAVCIS:CSI06:1,2016-10-05T18:00:00Z,28.8667,-90.4833,1013.81,11111222 
WAVCIS,ioos:station:WAVCIS:CSI06:1,2016-10-05T19:00:00Z,28.8667,-90.4833,1013.45,11111222 
WAVCIS,ioos:station:WAVCIS:CSI06:1,2016-10-05T20:00:00Z,28.8667,-90.4833,1012.88,11111222 
WAVCIS,ioos:station:WAVCIS:CSI06:1,2016-10-05T21:00:00Z,28.8667,-90.4833,1012.54,11111222 
WAVCIS,ioos:station:WAVCIS:CSI06:1,2016-10-05T22:00:00Z,28.8667,-90.4833,1012.59,11111222 
WAVCIS,ioos:station:WAVCIS:CSI06:1,2016-10-05T23:00:00Z,28.8667,-90.4833,1012.57,11111222 
WAVCIS,ioos:station:WAVCIS:CSI06:1,2016-10-06T00:00:00Z,28.8667,-90.4833,1013.07,11111222 
WAVCIS,ioos:station:WAVCIS:CSI06:1,2016-10-06T01:00:00Z,28.8667,-90.4833,1013.5,11111222 
WAVCIS,ioos:station:WAVCIS:CSI06:1,2016-10-06T02:00:00Z,28.8667,-90.4833,1013.83,11111222 
WAVCIS,ioos:station:WAVCIS:CSI06:1,2016-10-06T03:00:00Z,28.8667,-90.4833,1014.33,11111222 
WAVCIS,ioos:station:WAVCIS:CSI06:1,2016-10-06T04:00:00Z,28.8667,-90.4833,1014.48,11111222 
WAVCIS,ioos:station:WAVCIS:CSI06:1,2016-10-06T05:00:00Z,28.8667,-90.4833,1014.43,11111222 
WAVCIS,ioos:station:WAVCIS:CSI06:1,2016-10-06T06:00:00Z,28.8667,-90.4833,1013.93,11111222 
WAVCIS,ioos:station:WAVCIS:CSI06:1,2016-10-06T07:00:00Z,28.8667,-90.4833,1013.35,11111222 
WAVCIS,ioos:station:WAVCIS:CSI06:1,2016-10-06T08:00:00Z,28.8667,-90.4833,1013.13,11111222 
WAVCIS,ioos:station:WAVCIS:CSI06:1,2016-10-06T09:00:00Z,28.8667,-90.4833,1012.77,11111222 
WAVCIS,ioos:station:WAVCIS:CSI06:1,2016-10-06T10:00:00Z,28.8667,-90.4833,1012.89,11111222 
WAVCIS,ioos:station:WAVCIS:CSI06:1,2016-10-06T11:00:00Z,28.8667,-90.4833,1013.19,11111222 
WAVCIS,ioos:station:WAVCIS:CSI06:1,2016-10-06T12:00:00Z,28.8667,-90.4833,1013.35,11111222 
WAVCIS,ioos:station:WAVCIS:CSI06:1,2016-10-06T13:00:00Z,28.8667,-90.4833,1013.58,11111222 
WAVCIS,ioos:station:WAVCIS:CSI06:1,2016-10-06T14:00:00Z,28.8667,-90.4833,1013.83,11111222 
WAVCIS,ioos:station:WAVCIS:CSI06:1,2016-10-06T15:00:00Z,28.8667,-90.4833,1014.18,11111222 
WAVCIS,ioos:station:WAVCIS:CSI06:1,2016-10-06T16:00:00Z,28.8667,-90.4833,1013.95,11111222 
WAVCIS,ioos:station:WAVCIS:CSI06:1,2016-10-06T17:00:00Z,28.8667,-90.4833,1013.97,11111222 
WAVCIS,ioos:station:WAVCIS:CSI06:1,2016-10-06T18:00:00Z,28.8667,-90.4833,1013.71,11111222 
WAVCIS,ioos:station:WAVCIS:CSI06:1,2016-10-06T19:00:00Z,28.8667,-90.4833,1013.09,11111222 
WAVCIS,ioos:station:WAVCIS:CSI06:1,2016-10-06T20:00:00Z,28.8667,-90.4833,1012.69,11111222 
WAVCIS,ioos:station:WAVCIS:CSI06:1,2016-10-06T21:00:00Z,28.8667,-90.4833,1012.21,11111222 
WAVCIS,ioos:station:WAVCIS:CSI06:1,2016-10-06T22:00:00Z,28.8667,-90.4833,1012.32,11111222 
WAVCIS,ioos:station:WAVCIS:CSI06:1,2016-10-06T23:00:00Z,28.8667,-90.4833,1012.25,11111222 
WAVCIS,ioos:station:WAVCIS:CSI06:1,2016-10-07T00:00:00Z,28.8667,-90.4833,1012.46,11111222 
WAVCIS,ioos:station:WAVCIS:CSI06:1,2016-10-07T01:00:00Z,28.8667,-90.4833,1012.63,11111222 
WAVCIS,ioos:station:WAVCIS:CSI06:1,2016-10-07T02:00:00Z,28.8667,-90.4833,1012.88,11111222 
WAVCIS,ioos:station:WAVCIS:CSI06:1,2016-10-07T03:00:00Z,28.8667,-90.4833,1013.04,11111222 
WAVCIS,ioos:station:WAVCIS:CSI06:1,2016-10-07T04:00:00Z,28.8667,-90.4833,1013.0,11111222 
WAVCIS,ioos:station:WAVCIS:CSI06:1,2016-10-07T05:00:00Z,28.8667,-90.4833,1012.43,11111222 
WAVCIS,ioos:station:WAVCIS:CSI06:1,2016-10-07T06:00:00Z,28.8667,-90.4833,1011.95,11111222 
WAVCIS,ioos:station:WAVCIS:CSI06:1,2016-10-07T07:00:00Z,28.8667,-90.4833,1011.64,11111222 
WAVCIS,ioos:station:WAVCIS:CSI06:1,2016-10-07T08:00:00Z,28.8667,-90.4833,1011.77,11111222 
WAVCIS,ioos:station:WAVCIS:CSI06:1,2016-10-07T09:00:00Z,28.8667,-90.4833,1011.45,11111222 
WAVCIS,ioos:station:WAVCIS:CSI06:1,2016-10-07T10:00:00Z,28.8667,-90.4833,1011.82,11111222 
WAVCIS,ioos:station:WAVCIS:CSI06:1,2016-10-07T11:00:00Z,28.8667,-90.4833,1012.26,11111222 
WAVCIS,ioos:station:WAVCIS:CSI06:1,2016-10-07T12:00:00Z,28.8667,-90.4833,1012.55,11111222 
WAVCIS,ioos:station:WAVCIS:CSI06:1,2016-10-07T13:00:00Z,28.8667,-90.4833,1012.89,11111222 
WAVCIS,ioos:station:WAVCIS:CSI06:1,2016-10-07T14:00:00Z,28.8667,-90.4833,1013.57,11111222 
WAVCIS,ioos:station:WAVCIS:CSI06:1,2016-10-07T15:00:00Z,28.8667,-90.4833,1013.81,11111222 
WAVCIS,ioos:station:WAVCIS:CSI06:1,2016-10-07T16:00:00Z,28.8667,-90.4833,1013.97,11111222 
WAVCIS,ioos:station:WAVCIS:CSI06:1,2016-10-07T17:00:00Z,28.8667,-90.4833,1014.1,11111222 
WAVCIS,ioos:station:WAVCIS:CSI06:1,2016-10-07T18:00:00Z,28.8667,-90.4833,1013.75,11111222 
WAVCIS,ioos:station:WAVCIS:CSI06:1,2016-10-07T19:00:00Z,28.8667,-90.4833,1013.31,11111222 
WAVCIS,ioos:station:WAVCIS:CSI06:1,2016-10-07T20:00:00Z,28.8667,-90.4833,1012.54,11111222 
WAVCIS,ioos:station:WAVCIS:CSI06:1,2016-10-07T21:00:00Z,28.8667,-90.4833,1012.06,11111222 
WAVCIS,ioos:station:WAVCIS:CSI06:1,2016-10-07T22:00:00Z,28.8667,-90.4833,1012.2,11111222 
WAVCIS,ioos:station:WAVCIS:CSI06:1,2016-10-07T23:00:00Z,28.8667,-90.4833,1012.2,11111222 
WAVCIS,ioos:station:WAVCIS:CSI06:1,2016-10-08T00:00:00Z,28.8667,-90.4833,1012.46,11111222 
WAVCIS,ioos:station:WAVCIS:CSI06:1,2016-10-08T01:00:00Z,28.8667,-90.4833,1012.74,11111222 
WAVCIS,ioos:station:WAVCIS:CSI06:1,2016-10-08T02:00:00Z,28.8667,-90.4833,1013.37,11111222 
WAVCIS,ioos:station:WAVCIS:CSI06:1,2016-10-08T03:00:00Z,28.8667,-90.4833,1013.83,11111222 
WAVCIS,ioos:station:WAVCIS:CSI06:1,2016-10-08T04:00:00Z,28.8667,-90.4833,1013.99,11111222 
WAVCIS,ioos:station:WAVCIS:CSI06:1,2016-10-08T05:00:00Z,28.8667,-90.4833,1013.97,11111222 
WAVCIS,ioos:station:WAVCIS:CSI06:1,2016-10-08T06:00:00Z,28.8667,-90.4833,1013.76,11111222 
WAVCIS,ioos:station:WAVCIS:CSI06:1,2016-10-08T07:00:00Z,28.8667,-90.4833,1013.62,11111222 
WAVCIS,ioos:station:WAVCIS:CSI06:1,2016-10-08T08:00:00Z,28.8667,-90.4833,1013.74,11111222 
WAVCIS,ioos:station:WAVCIS:CSI06:1,2016-10-08T09:00:00Z,28.8667,-90.4833,1013.62,11111222 
WAVCIS,ioos:station:WAVCIS:CSI06:1,2016-10-08T10:00:00Z,28.8667,-90.4833,1014.12,11111222 
WAVCIS,ioos:station:WAVCIS:CSI06:1,2016-10-08T11:00:00Z,28.8667,-90.4833,1014.91,11111222 
WAVCIS,ioos:station:WAVCIS:CSI06:1,2016-10-08T12:00:00Z,28.8667,-90.4833,1015.64,11111222 
WAVCIS,ioos:station:WAVCIS:CSI06:1,2016-10-08T13:00:00Z,28.8667,-90.4833,1016.24,11111222 
WAVCIS,ioos:station:WAVCIS:CSI06:1,2016-10-08T14:00:00Z,28.8667,-90.4833,1016.84,11111222 
WAVCIS,ioos:station:WAVCIS:CSI06:1,2016-10-08T15:00:00Z,28.8667,-90.4833,1016.98,11111222 
WAVCIS,ioos:station:WAVCIS:CSI06:1,2016-10-08T16:00:00Z,28.8667,-90.4833,1017.01,11111222 
WAVCIS,ioos:station:WAVCIS:CSI06:1,2016-10-08T17:00:00Z,28.8667,-90.4833,1016.8,11111222 
WAVCIS,ioos:station:WAVCIS:CSI06:1,2016-10-08T18:00:00Z,28.8667,-90.4833,1016.43,11111222 
WAVCIS,ioos:station:WAVCIS:CSI06:1,2016-10-08T19:00:00Z,28.8667,-90.4833,1015.84,11111222 
WAVCIS,ioos:station:WAVCIS:CSI06:1,2016-10-08T20:00:00Z,28.8667,-90.4833,1015.43,11111222 
WAVCIS,ioos:station:WAVCIS:CSI06:1,2016-10-08T21:00:00Z,28.8667,-90.4833,1015.17,11111222 
WAVCIS,ioos:station:WAVCIS:CSI06:1,2016-10-08T22:00:00Z,28.8667,-90.4833,1014.96,11111222 
WAVCIS,ioos:station:WAVCIS:CSI06:1,2016-10-08T23:00:00Z,28.8667,-90.4833,1015.06,11111222 
WAVCIS,ioos:station:WAVCIS:CSI06:1,2016-10-09T00:00:00Z,28.8667,-90.4833,1015.46,11111222 
WAVCIS,ioos:station:WAVCIS:CSI06:1,2016-10-09T01:00:00Z,28.8667,-90.4833,1016.21,11111222 
WAVCIS,ioos:station:WAVCIS:CSI06:1,2016-10-09T02:00:00Z,28.8667,-90.4833,1016.68,11111222 
WAVCIS,ioos:station:WAVCIS:CSI06:1,2016-10-09T03:00:00Z,28.8667,-90.4833,1017.36,11111222 
WAVCIS,ioos:station:WAVCIS:CSI06:1,2016-10-09T04:00:00Z,28.8667,-90.4833,1017.72,11111222 
WAVCIS,ioos:station:WAVCIS:CSI06:1,2016-10-09T05:00:00Z,28.8667,-90.4833,1017.88,11111222 
WAVCIS,ioos:station:WAVCIS:CSI06:1,2016-10-09T06:00:00Z,28.8667,-90.4833,1017.64,11111222 
WAVCIS,ioos:station:WAVCIS:CSI06:1,2016-10-09T07:00:00Z,28.8667,-90.4833,1017.67,11111222 
WAVCIS,ioos:station:WAVCIS:CSI06:1,2016-10-09T08:00:00Z,28.8667,-90.4833,1017.49,11111222 
WAVCIS,ioos:station:WAVCIS:CSI06:1,2016-10-09T09:00:00Z,28.8667,-90.4833,1017.44,11111222 
WAVCIS,ioos:station:WAVCIS:CSI06:1,2016-10-09T10:00:00Z,28.8667,-90.4833,1017.65,11111222 
WAVCIS,ioos:station:WAVCIS:CSI06:1,2016-10-09T11:00:00Z,28.8667,-90.4833,1018.15,11111222 
WAVCIS,ioos:station:WAVCIS:CSI06:1,2016-10-09T12:00:00Z,28.8667,-90.4833,1018.82,11111222 
WAVCIS,ioos:station:WAVCIS:CSI06:1,2016-10-09T13:00:00Z,28.8667,-90.4833,1019.23,11111222 
WAVCIS,ioos:station:WAVCIS:CSI06:1,2016-10-09T14:00:00Z,28.8667,-90.4833,1019.77,11111222 
WAVCIS,ioos:station:WAVCIS:CSI06:1,2016-10-09T15:00:00Z,28.8667,-90.4833,1020.19,11111222 
WAVCIS,ioos:station:WAVCIS:CSI06:1,2016-10-09T16:00:00Z,28.8667,-90.4833,1020.35,11111222 
WAVCIS,ioos:station:WAVCIS:CSI06:1,2016-10-09T17:00:00Z,28.8667,-90.4833,1019.97,11111222 
WAVCIS,ioos:station:WAVCIS:CSI06:1,2016-10-09T18:00:00Z,28.8667,-90.4833,1019.4,11111222 
WAVCIS,ioos:station:WAVCIS:CSI06:1,2016-10-09T19:00:00Z,28.8667,-90.4833,1018.82,11111222 
WAVCIS,ioos:station:WAVCIS:CSI06:1,2016-10-09T20:00:00Z,28.8667,-90.4833,1018.51,11111222 
WAVCIS,ioos:station:WAVCIS:CSI06:1,2016-10-09T21:00:00Z,28.8667,-90.4833,1018.82,11111222 
WAVCIS,ioos:station:WAVCIS:CSI06:1,2016-10-09T22:00:00Z,28.8667,-90.4833,1018.8,11111222 
WAVCIS,ioos:station:WAVCIS:CSI06:1,2016-10-09T23:00:00Z,28.8667,-90.4833,1019.0,11111222 
WAVCIS,ioos:station:WAVCIS:CSI06:1,2016-10-10T00:00:00Z,28.8667,-90.4833,1019.54,11111222 
WAVCIS,ioos:station:WAVCIS:CSI06:1,2016-10-10T01:00:00Z,28.8667,-90.4833,1020.07,11111222 
WAVCIS,ioos:station:WAVCIS:CSI06:1,2016-10-10T02:00:00Z,28.8667,-90.4833,1020.69,11111222 
WAVCIS,ioos:station:WAVCIS:CSI06:1,2016-10-10T03:00:00Z,28.8667,-90.4833,1020.94,11111222 
WAVCIS,ioos:station:WAVCIS:CSI06:1,2016-10-10T04:00:00Z,28.8667,-90.4833,1020.71,11111222 
WAVCIS,ioos:station:WAVCIS:CSI06:1,2016-10-10T05:00:00Z,28.8667,-90.4833,1020.16,11111222 
WAVCIS,ioos:station:WAVCIS:CSI06:1,2016-10-10T06:00:00Z,28.8667,-90.4833,1019.54,11111222 
WAVCIS,ioos:station:WAVCIS:CSI06:1,2016-10-10T07:00:00Z,28.8667,-90.4833,1019.12,11111222 
WAVCIS,ioos:station:WAVCIS:CSI06:1,2016-10-10T08:00:00Z,28.8667,-90.4833,1018.81,11111222 
WAVCIS,ioos:station:WAVCIS:CSI06:1,2016-10-10T09:00:00Z,28.8667,-90.4833,1018.54,11111222 
WAVCIS,ioos:station:WAVCIS:CSI06:1,2016-10-10T10:00:00Z,28.8667,-90.4833,1018.56,11111222 
WAVCIS,ioos:station:WAVCIS:CSI06:1,2016-10-10T11:00:00Z,28.8667,-90.4833,1019.12,11111222 
WAVCIS,ioos:station:WAVCIS:CSI06:1,2016-10-10T12:00:00Z,28.8667,-90.4833,1019.67,11111222 
WAVCIS,ioos:station:WAVCIS:CSI06:1,2016-10-10T13:00:00Z,28.8667,-90.4833,1020.24,11111222 
WAVCIS,ioos:station:WAVCIS:CSI06:1,2016-10-10T14:00:00Z,28.8667,-90.4833,1020.68,11111222 
WAVCIS,ioos:station:WAVCIS:CSI06:1,2016-10-10T15:00:00Z,28.8667,-90.4833,1020.84,11111222 
WAVCIS,ioos:station:WAVCIS:CSI06:1,2016-10-10T16:00:00Z,28.8667,-90.4833,1020.86,11111222 
WAVCIS,ioos:station:WAVCIS:CSI06:1,2016-10-10T17:00:00Z,28.8667,-90.4833,1020.65,11111222 
WAVCIS,ioos:station:WAVCIS:CSI06:1,2016-10-10T18:00:00Z,28.8667,-90.4833,1020.16,11111222 
WAVCIS,ioos:station:WAVCIS:CSI06:1,2016-10-10T19:00:00Z,28.8667,-90.4833,1019.56,11111222 
WAVCIS,ioos:station:WAVCIS:CSI06:1,2016-10-10T20:00:00Z,28.8667,-90.4833,1019.33,11111222 
WAVCIS,ioos:station:WAVCIS:CSI06:1,2016-10-10T21:00:00Z,28.8667,-90.4833,1019.4,11111222 
WAVCIS,ioos:station:WAVCIS:CSI06:1,2016-10-10T22:00:00Z,28.8667,-90.4833,1019.35,11111222 
WAVCIS,ioos:station:WAVCIS:CSI06:1,2016-10-10T23:00:00Z,28.8667,-90.4833,1019.74,11111222 
WAVCIS,ioos:station:WAVCIS:CSI06:1,2016-10-11T00:00:00Z,28.8667,-90.4833,1019.99,11111222 
WAVCIS,ioos:station:WAVCIS:CSI06:1,2016-10-11T01:00:00Z,28.8667,-90.4833,1020.41,11111222 
WAVCIS,ioos:station:WAVCIS:CSI06:1,2016-10-11T02:00:00Z,28.8667,-90.4833,1020.93,11111222 
WAVCIS,ioos:station:WAVCIS:CSI06:1,2016-10-11T03:00:00Z,28.8667,-90.4833,1021.3,11111222 
WAVCIS,ioos:station:WAVCIS:CSI06:1,2016-10-11T04:00:00Z,28.8667,-90.4833,1021.26,11111222 
WAVCIS,ioos:station:WAVCIS:CSI06:1,2016-10-11T05:00:00Z,28.8667,-90.4833,1021.2,11111222 
WAVCIS,ioos:station:WAVCIS:CSI06:1,2016-10-11T06:00:00Z,28.8667,-90.4833,1020.93,11111222 
WAVCIS,ioos:station:WAVCIS:CSI06:1,2016-10-11T07:00:00Z,28.8667,-90.4833,1020.57,11111222 
WAVCIS,ioos:station:WAVCIS:CSI06:1,2016-10-11T08:00:00Z,28.8667,-90.4833,1020.35,11111222 
WAVCIS,ioos:station:WAVCIS:CSI06:1,2016-10-11T09:00:00Z,28.8667,-90.4833,1019.92,11111222 
WAVCIS,ioos:station:WAVCIS:CSI06:1,2016-10-11T10:00:00Z,28.8667,-90.4833,1019.79,11111222 
WAVCIS,ioos:station:WAVCIS:CSI06:1,2016-10-11T11:00:00Z,28.8667,-90.4833,1020.41,11111222 
WAVCIS,ioos:station:WAVCIS:CSI06:1,2016-10-11T12:00:00Z,28.8667,-90.4833,1020.95,11111222 
WAVCIS,ioos:station:WAVCIS:CSI06:1,2016-10-11T13:00:00Z,28.8667,-90.4833,1021.19,11111222 
WAVCIS,ioos:station:WAVCIS:CSI06:1,2016-10-11T14:00:00Z,28.8667,-90.4833,1021.78,11111222 
WAVCIS,ioos:station:WAVCIS:CSI06:1,2016-10-11T15:00:00Z,28.8667,-90.4833,1022.45,11111222 
WAVCIS,ioos:station:WAVCIS:CSI06:1,2016-10-11T16:00:00Z,28.8667,-90.4833,1022.56,11111222 
WAVCIS,ioos:station:WAVCIS:CSI06:1,2016-10-11T17:00:00Z,28.8667,-90.4833,1022.21,11111222 
WAVCIS,ioos:station:WAVCIS:CSI06:1,2016-10-11T18:00:00Z,28.8667,-90.4833,1021.65,11111222 
WAVCIS,ioos:station:WAVCIS:CSI06:1,2016-10-11T19:00:00Z,28.8667,-90.4833,1020.69,11111222 
WAVCIS,ioos:station:WAVCIS:CSI06:1,2016-10-11T20:00:00Z,28.8667,-90.4833,1019.82,11111222 
WAVCIS,ioos:station:WAVCIS:CSI06:1,2016-10-11T21:00:00Z,28.8667,-90.4833,1019.68,11111222 
WAVCIS,ioos:station:WAVCIS:CSI06:1,2016-10-11T22:00:00Z,28.8667,-90.4833,1019.47,11111222 